Regional Weather Roundup
Issued by NWS

Home | Current Version | Previous Version | Graphics & Text | Print | Product List | Glossary On
Versions: 1 2 3 4 5 6 7 8 9 10 11 12 13 14 15 16 17 18 19 20 21 22 23 24 25 26 27 28 29 30 31 32 33 34 35 36 37 38 39 40 41 42 43 44 45 46 47 48 49 50
000
ASUS45 KTFX 020010
RWRMT
MONTANA REGIONAL WEATHER ROUNDUP
NATIONAL WEATHER SERVICE GREAT FALLS MT
600 PM MDT TUE SEP 01 2015

NOTE: "FAIR" INDICATES FEW OR NO CLOUDS BELOW 12000 FEET WITH NO
SIGNIFICANT WEATHER AND/OR OBSTRUCTIONS TO VISIBILITY.

MTZ001>007-043-020100-
WEST OF THE DIVIDE

CITY           SKY/WX    TMP DP  RH WIND       PRES   REMARKS
KALISPELL      MOCLDY    78  34  20 SW7       29.76F
MISSOULA       SUNNY     82  34  17 VRB5      29.76F
BUTTE          PTSUNNY   78  27  15 N6        29.90F
MULLAN PASS    PTSUNNY   59  27  29 VRB6      29.94F
DEER LODGE       N/A     79  30  17 N5        29.88F
EUREKA           N/A     73  39  29 SW10      29.78F
HAMILTON         N/A     82  41  23 N5        29.76F
LIBBY            N/A     75  41  29 S7        29.77F
PLAINS           N/A     81  32  17 SW8       29.78F
$$

MTZ008-052>055-020100-
SOUTHWEST MONTANA

CITY           SKY/WX    TMP DP  RH WIND       PRES   REMARKS
BOZEMAN        SUNNY     85  28  12 CALM      29.83F
DILLON         MOSUNNY   84  27  12 NE6       29.85F
W YELLOWSTONE  SUNNY     75  25  15 SW15G23   30.03S
$$

MTZ009-010-012-014-046-048-049-054-020100-
EAST SLOPES AND CENTRAL MONTANA

CITY           SKY/WX    TMP DP  RH WIND       PRES   REMARKS
CUT BANK       SUNNY     74  27  17 SW14      29.77F
GREAT FALLS    SUNNY     83  30  14 SW10      29.77F
MALMSTROM AFB  MOSUNNY   83  29  14 SW13G20   29.77F
HELENA         MOSUNNY   83  36  18 NE6       29.79F
CONRAD           N/A     80  24  12 S5        29.82S
$$

MTZ011-013-016-021-045-047-050-051-020100-
NORTH CENTRAL MONTANA

CITY           SKY/WX    TMP DP  RH WIND       PRES   REMARKS
HAVRE          PTSUNNY   85  32  15 SW13G18   29.72F
LEWISTOWN      MOSUNNY   80  33  18 NW6       29.84R
N BAR RANCH      N/A     82  19   9 VRB7G22   29.87S
CHINOOK          N/A     82  34  17 SW12G18   29.73S
FORT BENTON      N/A     84  32  15 S12       29.74F
$$

MTZ017>020-022>027-061-062-020100-
NORTHEAST MONTANA

CITY           SKY/WX    TMP DP  RH WIND       PRES   REMARKS
GLASGOW        SUNNY     86  32  14 W7        29.74S
JORDAN           N/A     89  34  14 VRB3      29.76S
SIDNEY         SUNNY     91  43  18 W14       29.73R
WOLF POINT     SUNNY     88  40  18 SW8       29.75R
PLENTYWOOD       N/A     86  37  17 W15       29.75R
POPLAR           N/A     88  30  12 W13       29.75S
$$

MTZ028>42-056>058-020100-
SOUTHCENTRAL AND SOUTHEAST MONTANA

CITY           SKY/WX    TMP DP  RH WIND       PRES   REMARKS
BAKER          SUNNY     90  42  18 NW3       29.81R
BILLINGS       MOSUNNY   90  27  10 SE5       29.79F
LIVINGSTON     SUNNY     88  25  10 VRB3      29.82F
MILES CITY     SUNNY     91  32  12 W7        29.76S
EKALAKA          N/A     86  42  21 CALM      29.85R
FORSYTH          N/A     91  32  12 NE3       29.76S
LAUREL           N/A     90  30  11 NE3       29.80F
$$

REGIONAL REPORTS...DAKOTAS

CITY           SKY/WX    TMP DP  RH WIND       PRES   REMARKS
WILLISTON      SUNNY     91  43  18 W15       29.73R
MINOT          SUNNY     86  53  32 S12       29.75S
DICKINSON      SUNNY     86  55  34 SE10      29.78S
CROSBY           N/A     88  45  22 W13       29.72R
BISMARCK       SUNNY     86  65  49 S8        29.77S
GRAND FORKS    SUNNY     84  54  35 S8        29.80F
FARGO          MOSUNNY   85  55  35 SE9       29.83R
BUFFALO SD       N/A     86  55  34 E6        29.76S
RAPID CITY     SUNNY     83  59  44 NE7       29.84S
$$

REGIONAL REPORTS...WYOMING/IDAHO/WASHINGTON

CITY           SKY/WX    TMP DP  RH WIND       PRES   REMARKS
GILLETTE       SUNNY     89  31  12 NE3       29.88S
SHERIDAN       SUNNY     92  32  12 NE5       29.82S
BUFFALO WY     SUNNY     88  27  11 E10       29.91F
CODY           MOSUNNY   86  30  13 W8        29.89S
YELLOWSTONE LA   N/A     71  23  16 SW8       30.16S
IDAHO FALLS    MOSUNNY   86  26  11 SW16      29.92F
SALMON         MOSUNNY   84  43  23 N6        29.74S
BOISE          CLOUDY    84  40  21 N8        29.77F
SPOKANE        PTSUNNY   73  42  32 SW13      29.78F
$$

REGIONAL REPORTS...ALBERTA

CITY           SKY/WX    TMP DP  RH WIND       PRES   REMARKS
EDMONTON       PTSUNNY   64  34  32 N8        29.67R
CALGARY        PTSUNNY   72  32  23 SW7       29.65F
LETHBRIDGE     PTSUNNY   77  32  19 W13G22    29.71R
MEDICINE HAT   MOSUNNY   82  32  16 SW13      29.66S
WATERTON GATE    N/A     72  32  23 SW15G26     N/A
CARDSTON         N/A     75  30  19 SW10        N/A
MILK RIVER       N/A     77  30  18 W17G23      N/A
ONEFOUR          N/A     81  21  11 W22G30      N/A
$$

REGIONAL REPORTS...SASKATCHEWAN

CITY           SKY/WX    TMP DP  RH WIND       PRES   REMARKS
SWIFT CURRENT  SUNNY     79  34  19 W13       29.73R
REGINA         PTSUNNY   77  50  38 W6        29.74R
SASKATOON      MOSUNNY   77  45  31 W9        29.69R
CYPRESS HILLS    N/A     73  23  15 W10         N/A
VAL MARIE        N/A     82  23  11 W14         N/A
ROCKGLEN         N/A     77  39  25 SW10        N/A
ASSINIBOIA       N/A     68  34  28 NW6         N/A
$$



USA.gov is the U.S. government's official web portal to all federal, state and local government web resources and services.